Change the Weather History Date:

Sunday, March 31, 2013

  Actual Average Record
Temperature  
Mean Temperature 32 °F -  
Max Temperature 39 °F 45 °F 60 °F (1999)
Min Temperature 26 °F 29 °F 14 °F (1999)
Degree Days  
Heating Degree Days 32    
Moisture  
Dew Point 25 °F    
Average Humidity 74    
Maximum Humidity 93    
Minimum Humidity 45    
Precipitation  
Precipitation 0.00 in - - ()
Sea Level Pressure  
Sea Level Pressure 29.88 in    
Wind  
Wind Speed 12 mph (WNW)    
Max Wind Speed 25 mph    
Max Gust Speed 37 mph    
Visibility 6 miles    
Events Fog    
Averages and records for this station are not official NWS values.
T = Trace of Precipitation, MM = Missing Value Source: NWS Daily Summary

Daily Weather History Graph

Daily Weather History Graph

Search for Another Location

Airport or City:

Trip Planner

Search our weather history database for the weather conditions in past years. The results will help you decide how hot, cold, wet, or windy it might be!

Date:

Astronomy

Mar. 31, 2013 Rise Set
Actual Time 6:54 AM CDT 7:37 PM CDT
Civil Twilight 6:25 AM CDT 8:06 PM CDT
Nautical Twilight 5:51 AM CDT 8:41 PM CDT
Astronomical Twilight 5:15 AM CDT 9:16 PM CDT
Moon No Moon Rise 9:34 AM CDT (3/31)
Length of Visible Light 13h 40m
Length of Day
12h 43m
Waning Gibbous, 77% of the Moon is Illuminated
Mar 31
Waning Gibbous
Apr 2
Last Quarter
Apr 10
New
Apr 18
First Quarter
Apr 25
Full

Hourly Weather History & Observations

Time (CDT) Temp. Windchill Dew Point Humidity Pressure Visibility Wind Dir Wind Speed Gust Speed Precip Events Conditions
12:15 AM 33.8 °F 28.6 °F 32.0 °F 93% 29.87 in 0.2 mi NW 5.8 mph - N/A Fog Fog
12:36 AM 33.8 °F 28.6 °F 32.0 °F 93% 29.87 in 0.2 mi WNW 5.8 mph - N/A Fog Fog
12:55 AM 33.8 °F 28.6 °F 32.0 °F 93% 29.86 in 0.2 mi WNW 5.8 mph - N/A Fog Fog
1:15 AM 33.8 °F 28.6 °F 32.0 °F 93% 29.86 in 0.5 mi NW 5.8 mph - N/A Fog Fog
1:36 AM 33.8 °F 29.6 °F 32.0 °F 93% 29.86 in 0.5 mi WNW 4.6 mph - N/A Fog Fog
1:55 AM 33.8 °F 28.6 °F 32.0 °F 93% 29.86 in 1.2 mi WNW 5.8 mph - N/A   Overcast
2:16 AM 33.8 °F 28.6 °F 30.2 °F 87% 29.86 in 1.0 mi WNW 5.8 mph - N/A   Overcast
2:35 AM 33.8 °F 26.4 °F 30.2 °F 87% 29.86 in 1.0 mi WNW 9.2 mph - N/A   Overcast
2:55 AM 33.8 °F 24.8 °F 32.0 °F 93% 29.85 in 2.0 mi WNW 12.7 mph 18.4 mph N/A   Overcast
3:16 AM 33.8 °F 25.8 °F 30.2 °F 87% 29.86 in 2.0 mi WNW 10.4 mph 17.3 mph N/A   Overcast
3:35 AM 32.0 °F 22.1 °F 30.2 °F 93% 29.85 in 1.8 mi WNW 13.8 mph - N/A   Overcast
3:55 AM 32.0 °F 23.6 °F 30.2 °F 93% 29.84 in 1.5 mi WNW 10.4 mph 16.1 mph N/A   Overcast
4:16 AM 32.0 °F 23.6 °F 30.2 °F 93% 29.83 in 1.2 mi WNW 10.4 mph - N/A   Overcast
4:35 AM 32.0 °F 23.6 °F 30.2 °F 93% 29.84 in 0.8 mi WNW 10.4 mph - N/A   Overcast
4:55 AM 32.0 °F 24.8 °F 30.2 °F 93% 29.83 in 0.8 mi West 8.1 mph - N/A   Overcast
5:16 AM 32.0 °F 24.2 °F 30.2 °F 93% 29.83 in 1.0 mi West 9.2 mph - N/A   Overcast
5:35 AM 32.0 °F 23.0 °F 30.2 °F 93% 29.83 in 1.8 mi WNW 11.5 mph - N/A   Overcast
5:55 AM 32.0 °F 23.6 °F 30.2 °F 93% 29.82 in 1.2 mi WNW 10.4 mph - N/A   Overcast
6:15 AM 32.0 °F 23.0 °F 30.2 °F 93% 29.82 in 1.0 mi WNW 11.5 mph - N/A   Overcast
6:35 AM 33.8 °F 24.3 °F 30.2 °F 87% 29.82 in 1.2 mi WNW 13.8 mph - N/A   Overcast
6:56 AM 33.8 °F 23.9 °F 30.2 °F 87% 29.83 in 1.8 mi WNW 15.0 mph 18.4 mph N/A   Overcast
7:15 AM 33.8 °F 25.3 °F 30.2 °F 87% 29.83 in 2.5 mi WNW 11.5 mph 19.6 mph N/A   Overcast
7:35 AM 33.8 °F 25.3 °F 30.2 °F 87% 29.83 in 1.8 mi WNW 11.5 mph 17.3 mph N/A   Overcast
7:56 AM 33.8 °F 24.8 °F 30.2 °F 87% 29.83 in 2.5 mi WNW 12.7 mph 17.3 mph N/A   Overcast
8:15 AM 33.8 °F 25.8 °F 30.2 °F 87% 29.83 in 2.5 mi WNW 10.4 mph 17.3 mph N/A   Mostly Cloudy
8:35 AM 33.8 °F 25.3 °F 30.2 °F 87% 29.82 in 2.5 mi WNW 11.5 mph 17.3 mph N/A   Overcast
8:56 AM 33.8 °F 25.3 °F 32.0 °F 93% 29.82 in 3.0 mi WNW 11.5 mph - N/A   Overcast
9:15 AM 35.6 °F 26.6 °F 32.0 °F 87% 29.81 in 4.0 mi West 13.8 mph 19.6 mph N/A   Mostly Cloudy
9:35 AM 35.6 °F 26.6 °F 30.2 °F 81% 29.81 in 7.0 mi WNW 13.8 mph 24.2 mph N/A   Mostly Cloudy
9:56 AM 35.6 °F 25.9 °F 30.2 °F 81% 29.82 in 7.0 mi WNW 16.1 mph 26.5 mph N/A   Overcast
10:15 AM 35.6 °F 25.5 °F 30.2 °F 81% 29.83 in 7.0 mi WNW 17.3 mph 25.3 mph N/A   Overcast
10:35 AM 35.6 °F 24.0 °F 30.2 °F 81% 29.83 in 10.0 mi WNW 23.0 mph 29.9 mph N/A   Overcast
10:56 AM 33.8 °F 21.0 °F 28.4 °F 81% 29.84 in 7.0 mi NW 25.3 mph 32.2 mph N/A   Overcast
11:15 AM 33.8 °F 22.2 °F 28.4 °F 81% 29.85 in 7.0 mi WNW 20.7 mph 29.9 mph N/A   Overcast
11:35 AM 33.8 °F 22.8 °F 28.4 °F 81% 29.86 in 5.0 mi WNW 18.4 mph 26.5 mph N/A   Haze
11:55 AM 33.8 °F 22.5 °F 28.4 °F 81% 29.86 in 7.0 mi NW 19.6 mph 31.1 mph N/A   Overcast
12:15 PM 35.6 °F 25.2 °F 28.4 °F 75% 29.86 in 10.0 mi NW 18.4 mph 31.1 mph N/A   Overcast
12:36 PM 35.6 °F 25.2 °F 28.4 °F 75% 29.86 in 7.0 mi WNW 18.4 mph 25.3 mph N/A   Overcast
12:55 PM 35.6 °F 24.2 °F 28.4 °F 75% 29.86 in 10.0 mi WNW 21.9 mph 29.9 mph N/A   Overcast
1:15 PM 35.6 °F 25.5 °F 26.6 °F 70% 29.87 in 10.0 mi WNW 17.3 mph 27.6 mph N/A   Overcast
1:36 PM 37.4 °F 27.2 °F 26.6 °F 65% 29.87 in 10.0 mi NW 19.6 mph 27.6 mph N/A   Mostly Cloudy
1:55 PM 37.4 °F 26.1 °F 26.6 °F 65% 29.86 in 10.0 mi NW 24.2 mph 27.6 mph N/A   Overcast
2:15 PM 37.4 °F 27.2 °F 26.6 °F 65% 29.86 in 10.0 mi WNW 19.6 mph 28.8 mph N/A   Overcast
2:36 PM 37.4 °F 26.4 °F 24.8 °F 60% 29.86 in 10.0 mi WNW 23.0 mph 28.8 mph N/A   Mostly Cloudy
2:55 PM 37.4 °F 26.6 °F 23.0 °F 56% 29.87 in 10.0 mi NW 21.9 mph 32.2 mph N/A   Mostly Cloudy
3:15 PM 39.2 °F 28.7 °F 19.4 °F 45% 29.87 in 10.0 mi NW 23.0 mph 36.8 mph N/A   Mostly Cloudy
3:36 PM 37.4 °F 26.1 °F 21.2 °F 52% 29.87 in 10.0 mi WNW 24.2 mph 29.9 mph N/A   Mostly Cloudy
3:55 PM 37.4 °F 26.6 °F 19.4 °F 48% 29.88 in 10.0 mi WNW 21.9 mph 31.1 mph N/A   Scattered Clouds
4:16 PM 37.4 °F 27.2 °F 17.6 °F 45% 29.89 in 10.0 mi WNW 19.6 mph 33.4 mph N/A   Unknown
4:35 PM 37.4 °F 26.4 °F 17.6 °F 45% 29.89 in 10.0 mi WNW 23.0 mph 29.9 mph N/A   Unknown
4:55 PM 37.4 °F 26.1 °F 17.6 °F 45% 29.89 in 10.0 mi NW 24.2 mph 28.8 mph N/A   Mostly Cloudy
5:16 PM 35.6 °F 24.5 °F 17.6 °F 48% 29.90 in 10.0 mi WNW 20.7 mph 28.8 mph N/A   Scattered Clouds
5:35 PM 35.6 °F 25.2 °F 17.6 °F 48% 29.90 in 10.0 mi NW 18.4 mph 31.1 mph N/A   Scattered Clouds
5:55 PM 35.6 °F 24.8 °F 17.6 °F 48% 29.91 in 10.0 mi NW 19.6 mph 28.8 mph N/A   Scattered Clouds
6:15 PM 35.6 °F 26.2 °F 17.6 °F 48% 29.92 in 10.0 mi NW 15.0 mph 23.0 mph N/A   Mostly Cloudy
6:36 PM 33.8 °F 24.8 °F 19.4 °F 56% 29.93 in 10.0 mi NW 12.7 mph 21.9 mph N/A   Mostly Cloudy
7:15 PM 32.0 °F 21.2 °F 17.6 °F 55% 29.94 in 10.0 mi NW 16.1 mph 23.0 mph N/A   Scattered Clouds
7:36 PM 32.0 °F 22.5 °F 17.6 °F 55% 29.95 in 10.0 mi NW 12.7 mph 24.2 mph N/A   Scattered Clouds
7:55 PM 30.2 °F 18.5 °F 17.6 °F 60% 29.95 in 10.0 mi NW 17.3 mph 21.9 mph N/A   Scattered Clouds
8:16 PM 30.2 °F 18.5 °F 15.8 °F 55% 29.96 in 10.0 mi NW 17.3 mph 26.5 mph N/A   Clear
8:35 PM 30.2 °F 18.1 °F 15.8 °F 55% 29.97 in 10.0 mi NNW 18.4 mph 26.5 mph N/A   Clear
8:55 PM 30.2 °F 17.4 °F 15.8 °F 55% 29.98 in 10.0 mi NNW 20.7 mph 27.6 mph N/A   Clear
9:16 PM 28.4 °F 17.0 °F 15.8 °F 59% 29.99 in 10.0 mi NW 15.0 mph 21.9 mph N/A   Clear
9:35 PM 28.4 °F 16.2 °F 17.6 °F 64% 30.00 in 10.0 mi NW 17.3 mph 21.9 mph N/A   Clear
9:55 PM 28.4 °F 18.0 °F 17.6 °F 64% 30.01 in 10.0 mi NW 12.7 mph 19.6 mph N/A   Clear
10:16 PM 28.4 °F 16.6 °F 17.6 °F 64% 30.01 in 10.0 mi NW 16.1 mph 23.0 mph N/A   Clear
10:35 PM 26.6 °F 15.2 °F 17.6 °F 69% 30.03 in 10.0 mi NW 13.8 mph 24.2 mph N/A   Clear
10:55 PM 26.6 °F 15.2 °F 17.6 °F 69% 30.03 in 10.0 mi NW 13.8 mph - N/A   Clear
11:16 PM 26.6 °F 13.1 °F 15.8 °F 64% 30.04 in 10.0 mi NW 19.6 mph 25.3 mph N/A   Clear
11:35 PM 26.6 °F 13.1 °F 15.8 °F 64% 30.04 in 10.0 mi NW 19.6 mph 24.2 mph N/A   Clear
11:55 PM 26.6 °F 13.8 °F 15.8 °F 64% 30.05 in 10.0 mi NW 17.3 mph 25.3 mph N/A   Clear